Location: Tamazert
(32.6352°N, 5.2072°W)
Time: 15:45:57
(UTC+00:00)

Vanguard 3 - Pass Details

Date: 04 October 2022
Orbit: 509 x 3255 km, 33.3° (Epoch: 08 December)

Event Time Altitude Azimuth Distance (km) Brightness Sun altitude
Rises 08:07:20 0° 244° (WSW) 2,597 9.4 21.8°
Reaches altitude 10° 08:09:20 10° 240° (WSW) 1,754 8.6 22.2°
Maximum altitude 08:13:03 58° 160° (SSE) 703 7.6 22.9°
Drops below altitude 10° 08:18:11 10° 82° (E) 2,404 10.7 23.9°
Sets 08:21:21 0° 79° (E) 3,699 11.4 24.5°
